Regional Weather Roundup
Issued by NWS

Home | Current Version | Previous Version | Text Only | Print | Product List | Glossary On
Versions: 1 2 3 4 5 6 7 8 9 10 11 12 13 14 15 16 17 18 19 20 21 22 23 24 25 26 27 28 29 30 31 32 33 34 35 36 37 38 39 40 41 42 43 44 45 46 47 48 49 50
000
ASUS43 KDMX 272204
RWRIA

WEATHER ROUNDUP FOR IOWA
NATIONAL WEATHER SERVICE DES MOINES IA
  ISSUED BY NWS QUAD CITIES IA IL
400 PM CST FRI FEB 27 2015

NOTE: "FAIR" INDICATES FEW OR NO CLOUDS BELOW 12,000 FEET WITH NO
SIGNIFICANT WEATHER AND/OR OBSTRUCTIONS TO VISIBILITY.

* - THESE STATIONS ARE NOT NWS STATIONS...THUS NOT UNDER NWS
QUALITY CONTROL.  THEY ALSO DO NOT REPORT WEATHER SUCH
AS PRECIPITATION OR FOG.

IAZ001>003-012>014-020>022-031>034-043>046-272300-
   NORTHWEST IOWA

CITY           SKY/WX    TMP DP  RH WIND       PRES   REMARKS
CARROLL *      SUNNY     10   0  61 CALM      30.54S
CHEROKEE *     CLEAR     12   0  58 S3        30.51F
DENNISON *     SUNNY     12  -2  52 S5        30.51S WCI   4
LE MARS *      SUNNY     14   3  62 S7        30.50F WCI   4
ORANGE CITY *  SUNNY     14   1  57 S6        30.47F WCI   5
SHELDON *      SUNNY     12   1  62 S5        30.47S WCI   4
SPENCER        SUNNY     11   2  67 S8        30.50F WCI  -1
STORM LAKE *   SUNNY      9  -2  61 S5        30.50F WCI   0
$$

IAZ055>058-069>071-079>083-090>094-272300-
   SOUTHWEST IOWA

CITY           SKY/WX    TMP DP  RH WIND       PRES   REMARKS
ATLANTIC *     SUNNY     14   0  52 CALM      30.53F
CLARINDA *     SUNNY     19   0  42 CALM      30.55F
COUNCIL BLFS * SUNNY     18   5  57 SE5       30.50F WCI  11
CRESTON *      SUNNY     16   1  53 CALM      30.52F
HARLAN *       SUNNY     12   3  67 SE6       30.56F WCI   3
LAMONI         SUNNY     13   1  59 CALM      30.54F
RED OAK *      SUNNY     18   3  53 CALM      30.54S
SHENANDOAH *   SUNNY     19   1  45 SE5       30.55S WCI  13
$$

IAZ047>049-059>061-072>074-084-272300-
   CENTRAL IOWA

CITY           SKY/WX    TMP DP  RH WIND       PRES   REMARKS
AMES           SUNNY     10   0  63 S3        30.58S
ANKENY *       SUNNY     12  -2  52 CALM      30.59S
BOONE *        SUNNY     12   0  57 CALM      30.54S
CHARITON *     SUNNY     14   0  52 NE3       30.56F
DES MOINES     MOSUNNY   13  -3  49 SW3       30.58F
GRINNELL *     CLEAR      9  -3  59 S6        30.59S WCI  -1
KNOXVILLE *    SUNNY     12  -2  52 CALM      30.57F
MARSHALLTOWN   SUNNY      8  -2  63 CALM      30.57F
NEWTON *       SUNNY      9  -2  61 CALM      30.59S
PELLA *        SUNNY     15   2  56 CALM      30.61F
PERRY *          N/A     13   4  66 SE3       30.57S
$$

IAZ004>006-015-016-023>025-035-036-272300-
   NORTH CENTRAL IOWA

CITY           SKY/WX    TMP DP  RH WIND       PRES   REMARKS
ALGONA *       MOSUNNY   10   1  67 SW7       30.53F WCI   0
CLARION *      MOSUNNY    9   0  66 CALM      30.55F
ESTHERVILLE    SUNNY     10   3  73 SW7       30.49F WCI  -1
FORT DODGE *   SUNNY     10   0  61 SW6       30.55F WCI   1
MASON CITY     SUNNY      7   0  73 SW6       30.55S WCI  -3
FOREST CITY *  FAIR      10   1  67 SW7       30.53S WCI   0
WEBSTER CITY * SUNNY      9  -2  61 CALM      30.54F
IOWA FALLS *   FAIR       9  -1  64 CALM      30.57F
$$

IAZ007>011-017>019-026>030-037>042-050>054-066-272300-
   NORTHEAST IOWA

CITY           SKY/WX    TMP DP  RH WIND       PRES   REMARKS
CEDAR RAPIDS   SUNNY      7  -3  64 NW5       30.59F WCI  -2
CHARLES CITY * SUNNY      5  -4  66 SW6       30.56F WCI  -6
CLINTON *      SUNNY      9  -2  61 W5        30.64S WCI   0
DECORAH *      SUNNY      7  -6  56 VRB7      30.54S WCI  -5
DUBUQUE        SUNNY      8  -4  58 W8        30.56S WCI  -4
MONTICELLO *   SUNNY      9  -4  56 W7        30.60S WCI  -3
OELWEIN *      SUNNY      5  -4  66 SW6       30.57F WCI  -6
WATERLOO       SUNNY      6  -5  60 W7        30.59F WCI  -6
$$

IAZ064-065-067-068-078-272300-
   EAST CENTRAL IOWA

CITY           SKY/WX    TMP DP  RH WIND       PRES   REMARKS
DAVENPORT      SUNNY      7  -3  64 W7        30.62S WCI  -5
IOWA CITY      SUNNY      8  -2  63 W6        30.64S WCI  -2
MT. PLEASANT * SUNNY     12  -2  53 NE3       30.62F
MUSCATINE *    SUNNY     10  -4  52 SW6       30.65F WCI   1
QUAD CITIES    SUNNY     12  -3  51 W3        30.62S
$$

IAZ062-063-075>077-085>089-095>099-272300-
   SOUTHEAST IOWA

CITY           SKY/WX    TMP DP  RH WIND       PRES   REMARKS
BURLINGTON     SUNNY     12  -1  56 N5        30.62F WCI   4
FAIRFIELD *    SUNNY     10  -4  52 N5        30.61F WCI   2
FORT MADISON * SUNNY     10   0  61 N6        30.62F WCI   1
KEOKUK *       SUNNY     12   0  57 E6        30.61F WCI   3
OSKALOOSA *    FAIR      11   0  61 CALM      30.60F
CENTERVILLE *  FAIR      14   0  52 CALM      30.58F
OTTUMWA        SUNNY     14  -1  51 N3        30.59F
WASHINGTON *   SUNNY     10   0  61 W5        30.62F WCI   2
$$

ABBREVIATIONS USED IN REMARKS
   TC - TEMPERATURES IN CELSIUS
  WCI - WIND CHILL INDEX
   HX - HEAT INDEX
  VSB - VISIBILITY
$$



USA.gov is the U.S. government's official web portal to all federal, state and local government web resources and services.